| time (UTC) | temp C | wind direction | speed KPH | gust KPH | rain 1hr cm | rain 24hr cm | rain mn cm | humidity % | barometer mb |
| 20260510081234 | 18 | 70 | 0.0 | 0.0 | 0.00 | 0.36 | 0.25 | 77 | 1009.7 |
| 20260510080734 | 17 | 70 | 0.0 | 0.0 | 0.00 | 0.36 | 0.25 | 79 | 1009.6 |
| 20260510080234 | 17 | 70 | 0.0 | 0.0 | 0.00 | 0.36 | 0.25 | 80 | 1009.5 |
| 20260510075734 | 17 | 70 | 0.0 | 12.9 | 0.00 | 0.36 | 0.25 | 80 | 1009.5 |
| 20260510075234 | 17 | 139 | 0.0 | 12.9 | 0.00 | 0.36 | 0.25 | 81 | 1009.5 |
| 20260510074734 | 17 | 120 | 0.0 | 3.2 | 0.00 | 0.36 | 0.25 | 82 | 1009.5 |
| 20260510074234 | 17 | 40 | 0.0 | 0.0 | 0.00 | 0.36 | 0.25 | 83 | 1009.5 |
| 20260510073734 | 17 | 40 | 0.0 | 0.0 | 0.00 | 0.36 | 0.25 | 83 | 1009.4 |
| 20260510073234 | 17 | 40 | 0.0 | 0.0 | 0.00 | 0.36 | 0.25 | 84 | 1009.4 |
| 20260510072734 | 16 | 40 | 0.0 | 0.0 | 0.00 | 0.36 | 0.25 | 85 | 1009.4 |
| 20260510072234 | 16 | 40 | 0.0 | 0.0 | 0.00 | 0.36 | 0.25 | 85 | 1009.5 |
| 20260510071734 | 16 | 40 | 0.0 | 0.0 | 0.00 | 0.36 | 0.25 | 86 | 1009.5 |
| 20260510071234 | 16 | 40 | 0.0 | 0.0 | 0.00 | 0.36 | 0.25 | 86 | 1009.5 |
| 20260510070734 | 16 | 40 | 0.0 | 0.0 | 0.00 | 0.36 | 0.25 | 86 | 1009.4 |
| 20260510070234 | 15 | 40 | 0.0 | 0.0 | 0.00 | 0.36 | 0.25 | 86 | 1009.3 |
| 20260510065735 | 15 | 40 | 0.0 | 0.0 | 0.00 | 0.36 | 0.25 | 87 | 1009.3 |
| 20260510065235 | 15 | 40 | 0.0 | 0.0 | 0.00 | 0.36 | 0.25 | 87 | 1009.3 |
| 20260510064735 | 15 | 40 | 0.0 | 0.0 | 0.00 | 0.36 | 0.25 | 87 | 1009.3 |
| 20260510064235 | 15 | 40 | 0.0 | 0.0 | 0.00 | 0.36 | 0.25 | 87 | 1009.3 |
| 20260510063734 | 15 | 40 | 0.0 | 0.0 | 0.00 | 0.36 | 0.25 | 87 | 1009.2 |
| 20260510063235 | 15 | 40 | 0.0 | 0.0 | 0.00 | 0.36 | 0.25 | 87 | 1009.1 |
| 20260510062735 | 15 | 40 | 0.0 | 0.0 | 0.00 | 0.36 | 0.25 | 87 | 1009.1 |
| 20260510062235 | 15 | 40 | 0.0 | 0.0 | 0.00 | 0.36 | 0.25 | 88 | 1009.1 |
| 20260510061735 | 15 | 40 | 0.0 | 0.0 | 0.00 | 0.36 | 0.25 | 88 | 1009.0 |
| 20260510061235 | 15 | 40 | 0.0 | 0.0 | 0.00 | 0.36 | 0.25 | 88 | 1009.0 |
| 20260510060735 | 15 | 40 | 0.0 | 0.0 | 0.00 | 0.36 | 0.25 | 88 | 1009.0 |
| 20260510060235 | 15 | 40 | 0.0 | 0.0 | 0.00 | 0.36 | 0.25 | 88 | 1009.0 |
| 20260510055735 | 15 | 40 | 0.0 | 0.0 | 0.00 | 0.36 | 0.25 | 88 | 1008.9 |
| 20260510055235 | 15 | 40 | 0.0 | 0.0 | 0.00 | 0.36 | 0.25 | 88 | 1008.9 |
| 20260510054735 | 15 | 40 | 0.0 | 0.0 | 0.00 | 0.36 | 0.25 | 88 | 1008.9 |
| 20260510054235 | 15 | 40 | 0.0 | 0.0 | 0.00 | 0.36 | 0.25 | 88 | 1008.9 |
| 20260510053735 | 15 | 40 | 0.0 | 0.0 | 0.00 | 0.36 | 0.25 | 88 | 1008.8 |
| 20260510053235 | 15 | 40 | 0.0 | 0.0 | 0.00 | 0.36 | 0.25 | 88 | 1008.9 |
| 20260510052735 | 15 | 40 | 0.0 | 0.0 | 0.00 | 0.36 | 0.25 | 88 | 1009.0 |
| 20260510052235 | 15 | 40 | 0.0 | 0.0 | 0.00 | 0.36 | 0.25 | 88 | 1008.9 |
| 20260510051735 | 15 | 40 | 0.0 | 0.0 | 0.00 | 0.36 | 0.25 | 88 | 1008.9 |
| 20260510051235 | 15 | 40 | 0.0 | 0.0 | 0.00 | 0.36 | 0.25 | 88 | 1008.9 |
| 20260510050735 | 15 | 40 | 0.0 | 0.0 | 0.00 | 0.36 | 0.25 | 88 | 1008.8 |
| 20260510050235 | 14 | 40 | 0.0 | 6.4 | 0.00 | 0.36 | 0.25 | 88 | 1008.8 |
| 20260510045735 | 15 | 97 | 1.6 | 1.6 | 0.00 | 0.36 | 0.25 | 88 | 1008.8 |
| 20260510045235 | 15 | 112 | 0.0 | 0.0 | 0.00 | 0.36 | 0.25 | 88 | 1008.7 |
| 20260510044735 | 15 | 112 | 0.0 | 6.4 | 0.00 | 0.36 | 0.25 | 88 | 1008.6 |
| 20260510044235 | 15 | 68 | 3.2 | 8.0 | 0.00 | 0.36 | 0.25 | 87 | 1008.7 |
| 20260510043735 | 15 | 164 | 3.2 | 11.3 | 0.00 | 0.36 | 0.25 | 87 | 1008.8 |
| 20260510043235 | 15 | 143 | 0.0 | 12.9 | 0.00 | 0.36 | 0.25 | 87 | 1008.8 |
| 20260510042735 | 14 | 104 | 9.7 | 14.5 | 0.00 | 0.36 | 0.25 | 87 | 1008.9 |
| 20260510042235 | 14 | 101 | 6.4 | 17.7 | 0.00 | 0.36 | 0.25 | 87 | 1008.8 |
| 20260510041735 | 14 | 146 | 11.3 | 17.7 | 0.00 | 0.36 | 0.25 | 88 | 1008.8 |
| 20260510041235 | 14 | 63 | 12.9 | 14.5 | 0.00 | 0.36 | 0.25 | 88 | 1008.9 |
| 20260510040735 | 14 | 56 | 0.0 | 14.5 | 0.00 | 0.36 | 0.25 | 89 | 1009.0 |
| 20260510040235 | 14 | 60 | 9.7 | 14.5 | 0.00 | 0.36 | 0.25 | 90 | 1009.0 |
| 20260510035735 | 14 | 194 | 0.0 | 4.8 | 0.00 | 0.36 | 0.25 | 90 | 1009.0 |
| 20260510035235 | 14 | 60 | 1.6 | 9.7 | 0.00 | 0.36 | 0.25 | 90 | 1008.9 |
| 20260510034735 | 14 | 71 | 0.0 | 0.0 | 0.00 | 0.36 | 0.25 | 90 | 1009.0 |
| 20260510034235 | 14 | 71 | 0.0 | 6.4 | 0.00 | 0.36 | 0.25 | 90 | 1009.0 |
| 20260510033735 | 14 | 5 | 0.0 | 8.0 | 0.03 | 0.36 | 0.25 | 90 | 1009.0 |
| 20260510033235 | 14 | 60 | 4.8 | 9.7 | 0.03 | 0.36 | 0.25 | 90 | 1009.1 |
| 20260510032735 | 14 | 73 | 1.6 | 12.9 | 0.03 | 0.36 | 0.25 | 90 | 1009.2 |
| 20260510032235 | 14 | 85 | 3.2 | 8.0 | 0.03 | 0.36 | 0.25 | 90 | 1009.3 |
| 20260510031735 | 14 | 80 | 0.0 | 9.7 | 0.03 | 0.36 | 0.25 | 90 | 1009.3 |
| 20260510031235 | 14 | 84 | 0.0 | 8.0 | 0.03 | 0.36 | 0.25 | 90 | 1009.3 |
| 20260510030735 | 14 | 11 | 0.0 | 0.0 | 0.05 | 0.36 | 0.25 | 90 | 1009.5 |
| 20260510030235 | 14 | 11 | 0.0 | 6.4 | 0.05 | 0.36 | 0.25 | 90 | 1009.6 |
| 20260510025735 | 15 | 345 | 0.0 | 4.8 | 0.08 | 0.36 | 0.25 | 90 | 1009.6 |
| 20260510025235 | 15 | 61 | 3.2 | 8.0 | 0.10 | 0.36 | 0.25 | 90 | 1009.6 |
| 20260510024735 | 15 | 341 | 0.0 | 0.0 | 0.10 | 0.36 | 0.25 | 90 | 1009.7 |
| 20260510024235 | 15 | 341 | 0.0 | 0.0 | 0.10 | 0.36 | 0.25 | 90 | 1009.8 |
| 20260510023735 | 15 | 341 | 0.0 | 0.0 | 0.08 | 0.33 | 0.23 | 90 | 1009.9 |
| 20260510023235 | 15 | 341 | 0.0 | 0.0 | 0.08 | 0.33 | 0.23 | 90 | 1009.9 |
| 20260510022735 | 15 | 341 | 0.0 | 0.0 | 0.08 | 0.33 | 0.23 | 90 | 1010.0 |
| 20260510022235 | 15 | 341 | 0.0 | 4.8 | 0.08 | 0.33 | 0.23 | 90 | 1010.0 |
| 20260510021735 | 15 | 354 | 4.8 | 4.8 | 0.08 | 0.33 | 0.23 | 90 | 1010.1 |
| 20260510021235 | 15 | 112 | 0.0 | 0.0 | 0.08 | 0.33 | 0.23 | 90 | 1010.1 |
| 20260510020735 | 15 | 112 | 0.0 | 0.0 | 0.05 | 0.30 | 0.20 | 90 | 1010.0 |
| 20260510020235 | 15 | 112 | 0.0 | 0.0 | 0.05 | 0.30 | 0.20 | 89 | 1010.2 |
| 20260510015735 | 15 | 112 | 0.0 | 0.0 | 0.03 | 0.28 | 0.18 | 89 | 1010.3 |
| 20260510015235 | 15 | 112 | 0.0 | 0.0 | 0.00 | 0.25 | 0.15 | 89 | 1010.3 |
| 20260510014735 | 15 | 112 | 0.0 | 0.0 | 0.00 | 0.25 | 0.15 | 89 | 1010.3 |
| 20260510014235 | 15 | 112 | 0.0 | 0.0 | 0.00 | 0.25 | 0.15 | 89 | 1010.3 |
| 20260510013735 | 15 | 112 | 0.0 | 4.8 | 0.00 | 0.25 | 0.15 | 89 | 1010.3 |
| 20260510013235 | 15 | 125 | 3.2 | 3.2 | 0.00 | 0.25 | 0.15 | 89 | 1010.3 |
| 20260510012735 | 15 | 25 | 0.0 | 0.0 | 0.00 | 0.25 | 0.15 | 89 | 1010.2 |
| 20260510012235 | 15 | 25 | 0.0 | 0.0 | 0.00 | 0.25 | 0.15 | 89 | 1010.2 |
| 20260510011735 | 15 | 25 | 0.0 | 0.0 | 0.00 | 0.25 | 0.15 | 88 | 1010.2 |
| 20260510011235 | 15 | 25 | 0.0 | 0.0 | 0.00 | 0.25 | 0.15 | 88 | 1010.3 |
| 20260510010735 | 15 | 25 | 0.0 | 0.0 | 0.00 | 0.25 | 0.15 | 88 | 1010.3 |
| 20260510010235 | 15 | 25 | 0.0 | 0.0 | 0.00 | 0.25 | 0.15 | 88 | 1010.2 |
| 20260510005735 | 15 | 25 | 0.0 | 0.0 | 0.00 | 0.25 | 0.15 | 89 | 1010.1 |
| 20260510005235 | 15 | 25 | 0.0 | 0.0 | 0.00 | 0.25 | 0.15 | 88 | 1010.0 |
| 20260510004735 | 15 | 25 | 0.0 | 0.0 | 0.00 | 0.25 | 0.15 | 88 | 1010.1 |
| 20260510004235 | 15 | 25 | 0.0 | 0.0 | 0.00 | 0.25 | 0.15 | 88 | 1010.1 |
| 20260510003735 | 15 | 25 | 0.0 | 3.2 | 0.00 | 0.25 | 0.15 | 88 | 1010.1 |
| 20260510003235 | 15 | 14 | 0.0 | 0.0 | 0.00 | 0.25 | 0.15 | 88 | 1010.2 |
| 20260510002735 | 15 | 14 | 0.0 | 0.0 | 0.00 | 0.25 | 0.15 | 88 | 1010.2 |
| 20260510002235 | 15 | 14 | 0.0 | 0.0 | 0.03 | 0.25 | 0.15 | 88 | 1010.3 |
| 20260510001735 | 15 | 14 | 0.0 | 0.0 | 0.03 | 0.25 | 0.15 | 88 | 1010.2 |
| 20260510001235 | 15 | 14 | 0.0 | 0.0 | 0.05 | 0.25 | 0.15 | 88 | 1010.2 |
| 20260510000735 | 15 | 14 | 0.0 | 1.6 | 0.08 | 0.25 | 0.15 | 88 | 1010.3 |
| 20260510000235 | 15 | 14 | 0.0 | 6.4 | 0.08 | 0.25 | 0.15 | 88 | 1010.3 |
| 20260509235735 | 15 | 18 | 0.0 | 4.8 | 0.10 | 0.25 | 0.15 | 88 | 1010.4 |
| 20260509235235 | 15 | 37 | 0.0 | 0.0 | 0.10 | 0.25 | 0.15 | 88 | 1010.3 |
| 20260509234735 | 15 | 37 | 0.0 | 8.0 | 0.10 | 0.25 | 0.15 | 88 | 1010.1 |
| 20260509234235 | 15 | 28 | 0.0 | 4.8 | 0.10 | 0.25 | 0.15 | 88 | 1010.0 |
| 20260509233735 | 15 | 46 | 0.0 | 12.9 | 0.10 | 0.25 | 0.15 | 88 | 1009.9 |
| 20260509233235 | 14 | 142 | 12.9 | 12.9 | 0.13 | 0.25 | 0.15 | 88 | 1010.0 |
| 20260509232735 | 15 | 73 | 6.4 | 12.9 | 0.13 | 0.25 | 0.15 | 88 | 1010.1 |
| 20260509232235 | 15 | 60 | 11.3 | 11.3 | 0.13 | 0.23 | 0.13 | 87 | 1010.3 |
| 20260509231735 | 15 | 88 | 4.8 | 6.4 | 0.13 | 0.23 | 0.13 | 87 | 1010.5 |
| 20260509231235 | 15 | 35 | 0.0 | 8.0 | 0.10 | 0.20 | 0.10 | 86 | 1010.6 |
| 20260509230735 | 15 | 151 | 0.0 | 8.0 | 0.08 | 0.18 | 0.08 | 86 | 1010.7 |
| 20260509230235 | 15 | 40 | 3.2 | 6.4 | 0.08 | 0.18 | 0.08 | 86 | 1010.8 |
| 20260509225735 | 15 | 84 | 4.8 | 8.0 | 0.05 | 0.15 | 0.05 | 85 | 1010.8 |
| 20260509225235 | 15 | 46 | 1.6 | 6.4 | 0.08 | 0.15 | 0.05 | 85 | 1010.9 |
| 20260509224735 | 15 | 59 | 3.2 | 4.8 | 0.08 | 0.15 | 0.05 | 84 | 1011.0 |
| 20260509224235 | 16 | 73 | 1.6 | 3.2 | 0.08 | 0.15 | 0.05 | 83 | 1011.1 |
| 20260509223735 | 15 | 9 | 0.0 | 0.0 | 0.08 | 0.15 | 0.05 | 83 | 1011.4 |
| 20260509223235 | 15 | 9 | 0.0 | 1.6 | 0.08 | 0.13 | 0.03 | 83 | 1011.4 |
| 20260509222735 | 16 | 111 | 1.6 | 1.6 | 0.08 | 0.13 | 0.03 | 82 | 1011.3 |
| 20260509222235 | 16 | 111 | 0.0 | 0.0 | 0.08 | 0.10 | 0.00 | 82 | 1011.4 |
| 20260509221735 | 16 | 111 | 0.0 | 0.0 | 0.08 | 0.10 | 0.00 | 82 | 1011.3 |
| 20260509221235 | 16 | 111 | 0.0 | 0.0 | 0.10 | 0.10 | 0.00 | 82 | 1011.2 |
| 20260509220735 | 16 | 111 | 0.0 | 0.0 | 0.10 | 0.10 | 0.00 | 81 | 1011.2 |
| 20260509220235 | 16 | 111 | 0.0 | 6.4 | 0.10 | 0.10 | 0.00 | 81 | 1011.1 |
| 20260509215735 | 16 | 60 | 0.0 | 0.0 | 0.10 | 0.10 | 0.10 | 80 | 1010.8 |
| 20260509215235 | 16 | 60 | 0.0 | 4.8 | 0.08 | 0.08 | 0.08 | 80 | 1010.7 |
| 20260509214735 | 16 | 129 | 0.0 | 6.4 | 0.08 | 0.08 | 0.08 | 79 | 1010.8 |
| 20260509214235 | 17 | 43 | 1.6 | 8.0 | 0.08 | 0.08 | 0.08 | 78 | 1010.9 |
| 20260509213735 | 17 | 61 | 1.6 | 11.3 | 0.08 | 0.08 | 0.08 | 76 | 1011.0 |
| 20260509213235 | 17 | 97 | 4.8 | 9.7 | 0.05 | 0.05 | 0.05 | 73 | 1011.1 |
| 20260509212735 | 17 | 53 | 0.0 | 0.0 | 0.05 | 0.05 | 0.05 | 70 | 1011.1 |
| 20260509212235 | 17 | 53 | 0.0 | 0.0 | 0.03 | 0.03 | 0.03 | 69 | 1011.1 |
| 20260509211735 | 18 | 53 | 0.0 | 0.0 | 0.03 | 0.03 | 0.03 | 68 | 1011.1 |
| 20260509211235 | 18 | 53 | 0.0 | 0.0 | 0.00 | 0.00 | 0.00 | 66 | 1011.0 |
| 20260509210735 | 18 | 53 | 0.0 | 0.0 | 0.00 | 0.00 | 0.00 | 64 | 1010.8 |
| 20260509210235 | 18 | 53 | 0.0 | 11.3 | 0.00 | 0.00 | 0.00 | 62 | 1010.8 |
| 20260509205735 | 18 | 300 | 0.0 | 0.0 | 0.00 | 0.00 | 0.00 | 60 | 1010.9 |
| 20260509205235 | 18 | 300 | 0.0 | 0.0 | 0.00 | 0.00 | 0.00 | 58 | 1010.8 |
| 20260509204735 | 19 | 300 | 0.0 | 0.0 | 0.00 | 0.00 | 0.00 | 57 | 1010.9 |
| 20260509204235 | 19 | 300 | 0.0 | 8.0 | 0.00 | 0.00 | 0.00 | 55 | 1010.9 |
| 20260509203735 | 19 | 300 | 0.0 | 12.9 | 0.00 | 0.00 | 0.00 | 53 | 1011.0 |
| 20260509203235 | 19 | 300 | 0.0 | 14.5 | 0.00 | 0.00 | 0.00 | 52 | 1010.8 |
| 20260509202735 | 19 | 163 | 0.0 | 4.8 | 0.00 | 0.00 | 0.00 | 51 | 1010.8 |
| 20260509202235 | 20 | 300 | 0.0 | 6.4 | 0.00 | 0.00 | 0.00 | 51 | 1010.9 |
| 20260509201736 | 20 | 165 | 0.0 | 0.0 | 0.00 | 0.00 | 0.00 | 51 | 1010.9 |
| 20260509201235 | 20 | 165 | 0.0 | 0.0 | 0.00 | 0.00 | 0.00 | 51 | 1010.8 |
| 20260509200735 | 20 | 165 | 0.0 | 0.0 | 0.00 | 0.00 | 0.00 | 50 | 1010.7 |
| 20260509200235 | 20 | 165 | 0.0 | 0.0 | 0.00 | 0.00 | 0.00 | 50 | 1010.6 |
| 20260509195736 | 20 | 165 | 0.0 | 0.0 | 0.00 | 0.00 | 0.00 | 49 | 1010.6 |
| 20260509195236 | 20 | 165 | 0.0 | 0.0 | 0.00 | 0.00 | 0.00 | 49 | 1010.5 |
| 20260509194736 | 20 | 165 | 0.0 | 3.2 | 0.00 | 0.00 | 0.00 | 49 | 1010.5 |
| 20260509194236 | 20 | 127 | 1.6 | 11.3 | 0.00 | 0.00 | 0.00 | 49 | 1010.5 |
| 20260509193736 | 20 | 99 | 4.8 | 11.3 | 0.00 | 0.00 | 0.00 | 49 | 1010.5 |
| 20260509193236 | 20 | 97 | 0.0 | 6.4 | 0.00 | 0.00 | 0.00 | 49 | 1010.4 |
| 20260509192736 | 20 | 170 | 0.0 | 0.0 | 0.00 | 0.00 | 0.00 | 49 | 1010.4 |
| 20260509192236 | 20 | 170 | 0.0 | 0.0 | 0.00 | 0.00 | 0.00 | 48 | 1010.4 |
| 20260509191736 | 20 | 170 | 0.0 | 0.0 | 0.00 | 0.00 | 0.00 | 48 | 1010.3 |
| 20260509191236 | 20 | 170 | 0.0 | 0.0 | 0.00 | 0.00 | 0.00 | 48 | 1010.3 |
| 20260509190736 | 20 | 170 | 0.0 | 0.0 | 0.00 | 0.00 | 0.00 | 47 | 1010.3 |
| 20260509190236 | 20 | 170 | 0.0 | 0.0 | 0.00 | 0.00 | 0.00 | 47 | 1010.3 |
| 20260509185736 | 20 | 170 | 0.0 | 0.0 | 0.00 | 0.00 | 0.00 | 46 | 1010.3 |
| 20260509185236 | 20 | 170 | 0.0 | 0.0 | 0.00 | 0.00 | 0.00 | 46 | 1010.3 |
| 20260509184736 | 20 | 170 | 0.0 | 0.0 | 0.00 | 0.00 | 0.00 | 45 | 1010.3 |
| 20260509184236 | 20 | 170 | 0.0 | 0.0 | 0.00 | 0.00 | 0.00 | 45 | 1010.3 |
| 20260509183736 | 20 | 170 | 0.0 | 0.0 | 0.00 | 0.00 | 0.00 | 44 | 1010.2 |
| 20260509183236 | 20 | 170 | 0.0 | 0.0 | 0.00 | 0.00 | 0.00 | 44 | 1010.2 |
| 20260509182736 | 21 | 170 | 0.0 | 0.0 | 0.00 | 0.00 | 0.00 | 43 | 1010.1 |
| 20260509182236 | 21 | 170 | 0.0 | 0.0 | 0.00 | 0.00 | 0.00 | 42 | 1010.1 |
| 20260509181736 | 21 | 170 | 0.0 | 0.0 | 0.00 | 0.00 | 0.00 | 41 | 1010.1 |
| 20260509181236 | 21 | 170 | 0.0 | 0.0 | 0.00 | 0.00 | 0.00 | 40 | 1010.0 |
| 20260509180736 | 21 | 170 | 0.0 | 0.0 | 0.00 | 0.00 | 0.00 | 40 | 1010.0 |
| 20260509180236 | 21 | 170 | 0.0 | 0.0 | 0.00 | 0.00 | 0.00 | 39 | 1009.9 |
| 20260509175736 | 21 | 170 | 0.0 | 0.0 | 0.00 | 0.00 | 0.00 | 38 | 1009.8 |
| 20260509175236 | 21 | 170 | 0.0 | 0.0 | 0.00 | 0.00 | 0.00 | 38 | 1009.7 |
| 20260509174736 | 21 | 170 | 0.0 | 0.0 | 0.00 | 0.00 | 0.00 | 38 | 1009.8 |
| 20260509174236 | 21 | 170 | 0.0 | 0.0 | 0.00 | 0.00 | 0.00 | 37 | 1009.8 |
| 20260509173736 | 21 | 170 | 0.0 | 0.0 | 0.00 | 0.00 | 0.00 | 37 | 1009.8 |
| 20260509173236 | 21 | 170 | 0.0 | 0.0 | 0.00 | 0.00 | 0.00 | 37 | 1009.9 |
| 20260509172736 | 21 | 170 | 0.0 | 0.0 | 0.00 | 0.00 | 0.00 | 36 | 1009.9 |
| 20260509172236 | 22 | 170 | 0.0 | 0.0 | 0.00 | 0.00 | 0.00 | 37 | 1010.0 |
| 20260509171736 | 22 | 170 | 0.0 | 0.0 | 0.00 | 0.00 | 0.00 | 37 | 1009.9 |
| 20260509171236 | 22 | 170 | 0.0 | 0.0 | 0.00 | 0.00 | 0.00 | 36 | 1009.9 |
| 20260509170736 | 22 | 170 | 0.0 | 0.0 | 0.00 | 0.00 | 0.00 | 36 | 1009.8 |
| 20260509170236 | 22 | 170 | 0.0 | 0.0 | 0.00 | 0.00 | 0.00 | 35 | 1009.9 |
| 20260509165736 | 22 | 170 | 0.0 | 0.0 | 0.00 | 0.00 | 0.00 | 35 | 1009.9 |
| 20260509165236 | 22 | 170 | 0.0 | 0.0 | 0.00 | 0.00 | 0.00 | 35 | 1009.9 |
| 20260509164736 | 22 | 170 | 0.0 | 0.0 | 0.00 | 0.00 | 0.00 | 34 | 1010.1 |
| 20260509164236 | 22 | 170 | 0.0 | 0.0 | 0.00 | 0.00 | 0.00 | 33 | 1010.1 |
| 20260509163736 | 22 | 170 | 0.0 | 0.0 | 0.00 | 0.00 | 0.00 | 33 | 1010.1 |
| 20260509163236 | 22 | 170 | 0.0 | 0.0 | 0.00 | 0.00 | 0.00 | 33 | 1010.1 |
| 20260509162736 | 22 | 170 | 0.0 | 0.0 | 0.00 | 0.00 | 0.00 | 32 | 1010.1 |
| 20260509162236 | 22 | 170 | 0.0 | 0.0 | 0.00 | 0.00 | 0.00 | 32 | 1010.1 |
| 20260509161736 | 22 | 170 | 0.0 | 0.0 | 0.00 | 0.00 | 0.00 | 32 | 1010.0 |
| 20260509161236 | 22 | 170 | 0.0 | 16.1 | 0.00 | 0.00 | 0.00 | 31 | 1010.0 |
| 20260509160736 | 22 | 196 | 1.6 | 17.7 | 0.00 | 0.00 | 0.00 | 32 | 1010.0 |
| 20260509160236 | 22 | 109 | 0.0 | 12.9 | 0.00 | 0.00 | 0.00 | 32 | 1010.0 |
| 20260509155736 | 22 | 178 | 0.0 | 0.0 | 0.00 | 0.00 | 0.00 | 32 | 1010.1 |
| 20260509155236 | 22 | 178 | 0.0 | 0.0 | 0.00 | 0.00 | 0.00 | 31 | 1010.1 |
| 20260509154736 | 22 | 178 | 0.0 | 0.0 | 0.00 | 0.00 | 0.00 | 30 | 1010.2 |
| 20260509154236 | 22 | 178 | 0.0 | 0.0 | 0.00 | 0.00 | 0.00 | 30 | 1010.1 |
| 20260509153736 | 22 | 178 | 0.0 | 0.0 | 0.00 | 0.00 | 0.00 | 30 | 1010.2 |
| 20260509153236 | 22 | 178 | 0.0 | 0.0 | 0.00 | 0.00 | 0.00 | 30 | 1010.3 |
| 20260509152736 | 22 | 178 | 0.0 | 0.0 | 0.00 | 0.00 | 0.00 | 30 | 1010.4 |
| 20260509152236 | 22 | 178 | 0.0 | 0.0 | 0.00 | 0.00 | 0.00 | 31 | 1010.5 |
| 20260509151736 | 22 | 178 | 0.0 | 12.9 | 0.00 | 0.00 | 0.00 | 31 | 1010.5 |
| 20260509151236 | 22 | 178 | 0.0 | 24.1 | 0.00 | 0.00 | 0.00 | 31 | 1010.5 |
| 20260509150736 | 22 | 136 | 0.0 | 0.0 | 0.00 | 0.00 | 0.00 | 32 | 1010.5 |
| 20260509150236 | 22 | 136 | 0.0 | 14.5 | 0.00 | 0.00 | 0.00 | 33 | 1010.5 |
| 20260509145736 | 23 | 185 | 0.0 | 0.0 | 0.00 | 0.00 | 0.00 | 33 | 1010.6 |
| 20260509145236 | 23 | 185 | 0.0 | 19.3 | 0.00 | 0.00 | 0.00 | 34 | 1010.6 |
| 20260509144736 | 23 | 142 | 6.4 | 19.3 | 0.00 | 0.00 | 0.00 | 33 | 1010.8 |
| 20260509144236 | 23 | 75 | 8.0 | 16.1 | 0.00 | 0.00 | 0.00 | 34 | 1010.8 |
| 20260509143736 | 23 | 16 | 3.2 | 19.3 | 0.00 | 0.00 | 0.00 | 34 | 1010.9 |
| 20260509143236 | 23 | 161 | 12.9 | 16.1 | 0.00 | 0.00 | 0.00 | 33 | 1010.9 |
| 20260509142736 | 22 | 147 | 12.9 | 24.1 | 0.00 | 0.00 | 0.00 | 34 | 1010.9 |
| 20260509142236 | 23 | 85 | 12.9 | 22.5 | 0.00 | 0.00 | 0.00 | 35 | 1010.9 |
| 20260509141736 | 23 | 66 | 3.2 | 22.5 | 0.00 | 0.00 | 0.00 | 33 | 1011.0 |
| 20260509141236 | 23 | 146 | 8.0 | 22.5 | 0.00 | 0.00 | 0.00 | 34 | 1011.0 |
| 20260509140736 | 23 | 125 | 12.9 | 24.1 | 0.00 | 0.00 | 0.00 | 34 | 1011.0 |
| 20260509140236 | 23 | 170 | 3.2 | 17.7 | 0.00 | 0.00 | 0.00 | 34 | 1011.0 |
| 20260509135736 | 23 | 212 | 14.5 | 19.3 | 0.00 | 0.00 | 0.00 | 33 | 1011.2 |
| 20260509135236 | 23 | 300 | 1.6 | 24.1 | 0.00 | 0.00 | 0.00 | 33 | 1011.3 |
| 20260509134736 | 23 | 300 | 0.0 | 16.1 | 0.00 | 0.00 | 0.00 | 33 | 1011.4 |
| 20260509134236 | 23 | 164 | 3.2 | 19.3 | 0.00 | 0.00 | 0.00 | 33 | 1011.5 |
| 20260509133736 | 23 | 300 | 3.2 | 14.5 | 0.00 | 0.00 | 0.00 | 34 | 1011.5 |
| 20260509133236 | 23 | 205 | 1.6 | 14.5 | 0.00 | 0.00 | 0.00 | 34 | 1011.6 |
| 20260509132736 | 23 | 136 | 4.8 | 16.1 | 0.00 | 0.00 | 0.00 | 35 | 1011.7 |
| 20260509132236 | 23 | 156 | 3.2 | 17.7 | 0.00 | 0.00 | 0.00 | 34 | 1011.7 |
| 20260509131736 | 22 | 137 | 17.7 | 22.5 | 0.00 | 0.00 | 0.00 | 34 | 1011.8 |
| 20260509131236 | 22 | 129 | 17.7 | 24.1 | 0.00 | 0.00 | 0.00 | 34 | 1011.9 |
| 20260509130736 | 23 | 300 | 0.0 | 14.5 | 0.00 | 0.00 | 0.00 | 37 | 1011.9 |
| 20260509130236 | 23 | 205 | 4.8 | 20.9 | 0.00 | 0.00 | 0.00 | 35 | 1011.8 |
| 20260509125736 | 23 | 206 | 4.8 | 9.7 | 0.00 | 0.00 | 0.00 | 38 | 1012.0 |
| 20260509125236 | 23 | 300 | 0.0 | 12.9 | 0.00 | 0.00 | 0.00 | 37 | 1012.0 |
| 20260509124736 | 23 | 230 | 12.9 | 17.7 | 0.00 | 0.00 | 0.00 | 36 | 1012.0 |
| 20260509124236 | 23 | 300 | 0.0 | 17.7 | 0.00 | 0.00 | 0.00 | 36 | 1012.1 |
| 20260509123736 | 24 | 300 | 1.6 | 16.1 | 0.00 | 0.00 | 0.00 | 35 | 1012.2 |
| 20260509123236 | 24 | 199 | 0.0 | 17.7 | 0.00 | 0.00 | 0.00 | 34 | 1012.2 |
| 20260509122736 | 24 | 233 | 8.0 | 11.3 | 0.00 | 0.00 | 0.00 | 34 | 1012.2 |
| 20260509122236 | 24 | 213 | 0.0 | 19.3 | 0.00 | 0.00 | 0.00 | 34 | 1012.1 |
| 20260509121736 | 24 | 300 | 6.4 | 12.9 | 0.00 | 0.00 | 0.00 | 35 | 1012.2 |
| 20260509121236 | 24 | 123 | 0.0 | 16.1 | 0.00 | 0.00 | 0.00 | 35 | 1012.2 |
| 20260509120736 | 25 | 300 | 0.0 | 20.9 | 0.00 | 0.00 | 0.00 | 32 | 1012.2 |
| 20260509120236 | 25 | 168 | 0.0 | 17.7 | 0.00 | 0.00 | 0.00 | 32 | 1012.2 |
| 20260509115736 | 25 | 300 | 0.0 | 14.5 | 0.00 | 0.00 | 0.00 | 32 | 1012.3 |
| 20260509115236 | 24 | 300 | 0.0 | 14.5 | 0.00 | 0.00 | 0.00 | 33 | 1012.2 |
| 20260509114736 | 24 | 300 | 0.0 | 11.3 | 0.00 | 0.00 | 0.00 | 35 | 1012.3 |
| 20260509114236 | 23 | 300 | 0.0 | 14.5 | 0.00 | 0.00 | 0.00 | 37 | 1012.5 |
| 20260509113736 | 23 | 225 | 0.0 | 19.3 | 0.00 | 0.00 | 0.00 | 36 | 1012.6 |
| 20260509113236 | 23 | 182 | 11.3 | 17.7 | 0.00 | 0.00 | 0.00 | 36 | 1012.6 |
| 20260509112736 | 23 | 150 | 0.0 | 12.9 | 0.00 | 0.00 | 0.00 | 36 | 1012.7 |
| 20260509112236 | 23 | 184 | 11.3 | 14.5 | 0.00 | 0.00 | 0.00 | 38 | 1012.7 |
| 20260509111736 | 23 | 300 | 0.0 | 12.9 | 0.00 | 0.00 | 0.00 | 40 | 1012.7 |
| 20260509111236 | 23 | 327 | 0.0 | 8.0 | 0.00 | 0.00 | 0.00 | 41 | 1012.9 |
| 20260509110736 | 23 | 300 | 0.0 | 17.7 | 0.00 | 0.00 | 0.00 | 41 | 1013.0 |
| 20260509110236 | 23 | 219 | 0.0 | 14.5 | 0.00 | 0.00 | 0.00 | 38 | 1013.0 |
| 20260509105736 | 23 | 210 | 0.0 | 0.0 | 0.00 | 0.00 | 0.00 | 36 | 1013.2 |
| 20260509105236 | 23 | 210 | 0.0 | 14.5 | 0.00 | 0.00 | 0.00 | 36 | 1013.2 |
| 20260509104736 | 23 | 300 | 1.6 | 12.9 | 0.00 | 0.00 | 0.00 | 36 | 1013.3 |
| 20260509104236 | 23 | 109 | 4.8 | 9.7 | 0.00 | 0.00 | 0.00 | 36 | 1013.2 |
| 20260509103736 | 23 | 300 | 0.0 | 11.3 | 0.00 | 0.00 | 0.00 | 36 | 1013.3 |
| 20260509103236 | 23 | 300 | 0.0 | 14.5 | 0.00 | 0.00 | 0.00 | 36 | 1013.4 |
| 20260509102736 | 23 | 300 | 0.0 | 16.1 | 0.00 | 0.00 | 0.00 | 35 | 1013.4 |
| 20260509102236 | 23 | 0 | 0.0 | 4.8 | 0.00 | 0.00 | 0.00 | 33 | 1013.4 |
| 20260509101736 | 23 | 300 | 0.0 | 3.2 | 0.00 | 0.00 | 0.00 | 31 | 1013.5 |
| 20260509101236 | 23 | 167 | 0.0 | 11.3 | 0.00 | 0.00 | 0.00 | 31 | 1013.5 |
| 20260509100736 | 23 | 188 | 6.4 | 11.3 | 0.00 | 0.00 | 0.00 | 31 | 1013.5 |
| 20260509100236 | 23 | 300 | 4.8 | 4.8 | 0.00 | 0.00 | 0.00 | 31 | 1013.5 |
| 20260509095736 | 23 | 201 | 0.0 | 11.3 | 0.00 | 0.00 | 0.00 | 31 | 1013.5 |
| 20260509095236 | 22 | 206 | 0.0 | 14.5 | 0.00 | 0.00 | 0.00 | 32 | 1013.6 |
| 20260509094736 | 22 | 59 | 9.7 | 11.3 | 0.00 | 0.00 | 0.00 | 31 | 1013.6 |
| 20260509094236 | 22 | 300 | 0.0 | 17.7 | 0.00 | 0.00 | 0.00 | 31 | 1013.7 |
| 20260509093736 | 23 | 172 | 0.0 | 14.5 | 0.00 | 0.00 | 0.00 | 30 | 1013.6 |
| 20260509093236 | 23 | 215 | 0.0 | 12.9 | 0.00 | 0.00 | 0.00 | 31 | 1013.6 |
| 20260509092736 | 22 | 300 | 0.0 | 14.5 | 0.00 | 0.00 | 0.00 | 31 | 1013.6 |
| 20260509092236 | 22 | 250 | 0.0 | 11.3 | 0.00 | 0.00 | 0.00 | 32 | 1013.7 |
| 20260509091736 | 22 | 300 | 0.0 | 0.0 | 0.00 | 0.00 | 0.00 | 32 | 1013.7 |
| 20260509091237 | 22 | 300 | 0.0 | 12.9 | 0.00 | 0.00 | 0.00 | 32 | 1013.8 |
| 20260509090737 | 22 | 300 | 0.0 | 0.0 | 0.00 | 0.00 | 0.00 | 31 | 1013.9 |
| 20260509090237 | 21 | 300 | 0.0 | 0.0 | 0.00 | 0.00 | 0.00 | 33 | 1014.0 |
| 20260509085737 | 21 | 300 | 0.0 | 0.0 | 0.00 | 0.00 | 0.00 | 33 | 1014.1 |
| 20260509085237 | 22 | 300 | 0.0 | 0.0 | 0.00 | 0.00 | 0.00 | 32 | 1014.2 |
| 20260509084737 | 22 | 300 | 0.0 | 0.0 | 0.00 | 0.00 | 0.00 | 32 | 1014.1 |
| 20260509084237 | 21 | 300 | 0.0 | 4.8 | 0.00 | 0.00 | 0.00 | 34 | 1014.2 |
| 20260509083737 | 21 | 300 | 0.0 | 14.5 | 0.00 | 0.00 | 0.00 | 34 | 1014.3 |
| 20260509083237 | 21 | 133 | 0.0 | 12.9 | 0.00 | 0.00 | 0.00 | 36 | 1014.3 |
| 20260509082737 | 21 | 133 | 0.0 | 14.5 | 0.00 | 0.00 | 0.00 | 36 | 1014.3 |
| 20260509082237 | 21 | 202 | 0.0 | 14.5 | 0.00 | 0.00 | 0.00 | 36 | 1014.3 |
| 20260509081737 | 21 | 300 | 0.0 | 0.0 | 0.00 | 0.00 | 0.00 | 37 | 1014.4 |